STARLINK-32791 (62530 NORAD) Tracking and Keplerian Element Data

This shows tracking and keplerian element data for the satellite.

Feedback or suggestion? Click here.




ElementValue
Catalog62530
NameSTARLINK-32791
Epoch Orbit541
Epoch Day35.16668981
Epoch Year2025
RAAN315.7715
Inclination42.9987
Eccentricity0.0001324
Argument of Perigee255.3731
Mean Anonmoly302.9981
Mean Motion15.50569264
Decay Rate0.00020314
L11 62530U 25004V 25035.16668981 .00020314 00000+0 35130-3 0 9991
L22 62530 42.9987 315.7715 0001324 255.3731 302.9981 15.50569264 5417



Live tracking and technical data element details for STARLINK-32791 (NORAD 62530). STARLINK-32791 can be tracked NOW for your location showing map with azimuth and elevation plus other details from your city location.







IsCatalogInMostPopularTable: catalog: 62530, numindb: 16
Update: records affected: 1



GetName: 62530 STARLINK-32791

Hit Count: updated at: Sat, 24 May 2025 16:21:52 GMT